sat.trackr.live / text

‹ back to catalog

KUIPER-00455

NORAD 68949 · 2026-098AG

PAYLOAD ACTIVE UNKNOWN

§ Identity

Operator
Country
US
Launch date
2026-04-30
Launch site
FRGUI
Launch vehicle
Mass (kg)
RCS (m²)

External: N2YO · Heavens-Above · Gunter

§ Orbital elements

Epoch: 2026-05-25T02:45:35.706240Z

Period
94.13 min
Inclination
51.8734°
Eccentricity
0.0020620
Mean motion
15.29761906 rev/d
Perigee alt
462.4 km
Apogee alt
490.7 km
Semi-major
6,854.7 km
B*
7.2889e-4
RAAN
179.6009°
Arg perigee
73.9248°
Mean anomaly
286.4004°
Rev number
379

§ Raw data

KUIPER-004551 68949U 26098AG  26145.11499660  .00021143  00000+0  72889-3 0  99922 68949  51.8734 179.6009 0020620  73.9248 286.4004 15.29761906  3790

JSON: /api/v1/satellites/68949 · /tle

For live sub-satellite position, see the globe view (requires WebGL).

§ Visibility from observer

Set your observer location to see the next 7 days of passes ≥ 10°. The values pass through the URL so the page stays shareable.

No JS? Fill the form by hand. The geolocation button needs JavaScript.